Home   Weather   Santa Maria   Past weeks

Flag for Cabo Verde Past Weather in Santa Maria, Cabo Verde — Yesterday and Last 2 Weeks

Now
70 °F

Scattered clouds.


Feels Like: 70 °F
Forecast: 70 / 80 °F
Wind: 9 mph from Northeast

Location: Sal

Current Time: May 1, 2017 at 5:36:19 am

Latest Report: May 1, 2017 at 5:00 am


Visibility: N/A

Pressure: 29.95 "Hg

Humidity: 83%

Dew Point: 64 °F

Location of Santa MariaLocation

Past Weather in Santa Maria — Graph

°F

Santa Maria Temperature Yesterday

Maximum temperature yesterday: 79 °F (at 12:00 pm)
Minimum temperature yesterday: 70 °F (at 4:00 am)
Average temperature yesterday: 74 °F

High & Low Weather Summary for the Past Weeks

 TemperatureHumidityPressure
High84 °F (Apr 16, 1:00 pm)100% (Apr 27, 6:00 am)30.09 "Hg (Apr 27, 6:00 am)
Low66 °F (Apr 20, 6:00 am)43% (Apr 27, 11:00 am)29.86 "Hg (Apr 16, 3:00 pm)
Average74 °F73%29.96 "Hg
* Reported Apr 16 4:00 am — May 1 4:00 am, Santa Maria, Weather by CustomWeather, © 2017

Note: Actual official high and low records may vary slightly from our data, if they occured in-between our weather recording intervals... More about our weather records

Advertising

Santa Maria Weather History for the Previous 24 Hours

Scroll right to see more
 ConditionsComfort  
Time TempWeatherWind HumidityBarometerVisibility
4:00 am
Mon, May 1
70 °FPassing clouds.10 mph83%29.95 "HgN/A
3:00 am72 °FPassing clouds.10 mph78%29.95 "HgN/A
2:00 am72 °FPassing clouds.13 mph78%29.98 "HgN/A
1:00 am72 °FPassing clouds.12 mph78%29.98 "HgN/A
12:00 am72 °FPassing clouds.14 mph78%30.01 "HgN/A
11:00 pm
Sun, Apr 30
72 °FPassing clouds.13 mph78%30.01 "HgN/A
10:00 pm72 °FPassing clouds.14 mph78%30.01 "HgN/A
9:00 pm72 °FPassing clouds.14 mph78%30.01 "HgN/A
8:00 pm73 °FPassing clouds.15 mph74%29.98 "HgN/A
7:00 pm73 °FPassing clouds.15 mph74%29.98 "HgN/A
6:00 pm75 °FPassing clouds.17 mph65%29.98 "HgN/A
5:00 pm77 °FPassing clouds.17 mph61%29.98 "HgN/A
4:00 pm79 °FScattered clouds.17 mph58%29.98 "HgN/A
3:00 pm79 °FScattered clouds.18 mph58%29.98 "HgN/A
2:00 pm79 °FScattered clouds.15 mph58%30.01 "HgN/A
1:00 pm79 °FBroken clouds.16 mph58%30.04 "HgN/A
12:00 pm79 °FBroken clouds.16 mph58%30.04 "HgN/A
11:00 am77 °FScattered clouds.16 mph61%30.04 "HgN/A
10:00 am77 °FScattered clouds.17 mph61%30.04 "HgN/A
9:00 am75 °FScattered clouds.15 mph65%30.04 "HgN/A
8:00 am73 °FScattered clouds.13 mph69%30.01 "HgN/A
7:00 am72 °FScattered clouds.10 mph73%30.01 "HgN/A
6:00 am72 °FScattered clouds.12 mph73%29.98 "HgN/A
5:00 am70 °FScattered clouds.9 mph78%29.98 "HgN/A
Weather by CustomWeather, © 2017

See weather overviewHow to use our weather pages